Location: Cahas Mountain Overlook
(37.0833°N, 80.1000°W)
Time: 19:17:52
(UTC-04:00)

SR - Pass Details

Date: 16 February 2026
Orbit: 572 x 849 km, 66.7° (Epoch: 13 March)

Event Time Altitude Azimuth Distance (km) Brightness Sun altitude
Rises 04:33:27 0° 195° (SSW) 2,760 - -31.4°
Reaches altitude 10° 04:35:41 10° 190° (S) 1,865 - -30.9°
Maximum altitude 04:39:43 52° 114° (ESE) 718 - -30.2°
Exits shadow 04:41:22 32° 55° (NE) 1,011 ? -29.8°
Drops below altitude 10° 04:43:53 10° 37° (NE) 1,927 ? -29.3°
Sets 04:46:13 0° 33° (NNE) 2,863 ? -28.9°
